User: anonymous   Login
Location: Orson Pratt Observatory
(40.2472°N, 111.6506°W)
Time: 04:51:06
(UTC-06:00)
Language:

SEEDS - Orbit

View from above orbital plane
View from above orbital plane
View from above satellite
View from above satellite

Ground track
Ground track

The orbit data is extracted from the following two-line orbital elements,

1 32791U 08021J   19295.54898608 +.00000400 +00000-0 +45912-4 0  9996
2 32791 097.5320 295.4572 0013449 172.2796 187.8633 14.90891116622780
Epoch (UTC): 22 October 2019 13:10:32
Eccentricity: 0.0013449
inclination: 97.5320°
perigee height: 586 km
apogee height: 604 km
right ascension of ascending node: 295.4572°
argument of perigee: 172.2796°
revolutions per day: 14.90891116
mean anomaly at epoch: 187.8633°
orbit number at epoch: 62278

The dashed part of the orbit path shows where the satellite is in the earth's shadow,  

DLR